KANOPUS-V 3

基本信息
目录编号:
43180
目录名称:
KANOPUS-V 3
国际标识:
2018-014A
轨道中心:
EARTH
卫星名称:
KANOPUS-V 3
卫星全名:
--
卫星状态:
在轨 (已飞行2952 天)
发射日期:
2018-02-01 UTC
国别 :
俄罗斯(独联体) (CIS)
星等 :
--
轨道信息
数据来源 国际轨道数据
星历时间: 2026-03-03T16:19:15+0800
5小时前
查看轨道信息
半长轴: 6874.995km
偏心率: 0.0001577
轨道倾角: 97.365°
近地点辐角 86.001°
升交点赤经 330.004°
平近点角 274.140°
近地点: 495.773km
远地点: 497.943km
周期: 94.551分钟
每日圈数: 15.229801
详细信息
使用方式:
暂无
2D轨道图
3D轨道图
轨道高度分析图
轨道倾角分析图
轨道综合分析图
查看轨道综合分析图